This is the latest recevied weather packets stored in our database for station/object W7TTE. If no packets are shown the sender has not sent any weather packets the latest 10 day(s).
| Time | Temp. | Humidity | Pressure | Rain* | Wind** | Luminosity | Snow |
|---|---|---|---|---|---|---|---|
| 1777316060 | 25.56° C | 24% | 1015.9 hPa | 0 mm | - | 782 W/m² | - |
| 1777315758 | 25° C | 24% | 1016.1 hPa | 0 mm | - | 775 W/m² | - |
| 1777315455 | 24.44° C | 24% | 1016.3 hPa | 0 mm | - | 773 W/m² | - |
| 1777315153 | 24.44° C | 24% | 1016.2 hPa | 0 mm | - | 769 W/m² | - |
| 1777314849 | 23.89° C | 25% | 1016.5 hPa | 0 mm | - | 765 W/m² | - |
| 1777314545 | 24.44° C | 24% | 1016.5 hPa | 0 mm | - | 757 W/m² | - |
| 1777314241 | 24.44° C | 25% | 1016.8 hPa | 0 mm | - | 754 W/m² | - |
| 1777313939 | 23.89° C | 26% | 1016.6 hPa | 0 mm | - | 747 W/m² | - |
| 1777313636 | 23.89° C | 25% | 1016.5 hPa | 0 mm | - | 742 W/m² | - |
| 1777313335 | 23.89° C | 25% | 1016.6 hPa | 0 mm | - | 736 W/m² | - |
| 1777313030 | 23.33° C | 26% | 1016.7 hPa | 0 mm | - | 730 W/m² | - |
| 1777312727 | 23.33° C | 26% | 1016.8 hPa | 0 mm | - | 722 W/m² | - |
| 1777312423 | 22.78° C | 26% | 1016.7 hPa | 0 mm | - | 715 W/m² | - |
| 1777312121 | 23.33° C | 26% | 1017 hPa | 0 mm | - | 706 W/m² | - |
| 1777311819 | 23.33° C | 26% | 1016.7 hPa | 0 mm | - | 697 W/m² | - |
| 1777311516 | 23.33° C | 27% | 1016.7 hPa | 0 mm | - | 689 W/m² | - |
| 1777311213 | 22.78° C | 26% | 1016.7 hPa | 0 mm | - | 679 W/m² | - |
| 1777310911 | 23.33° C | 26% | 1016.9 hPa | 0 mm | - | 670 W/m² | - |
| 1777310608 | 22.78° C | 26% | 1016.9 hPa | 0 mm | - | 659 W/m² | - |
| 1777310305 | 22.78° C | 26% | 1016.9 hPa | 0 mm | - | 649 W/m² | - |
| 1777310002 | 22.78° C | 26% | 1017 hPa | 0 mm | - | 637 W/m² | - |
| 1777309700 | 22.22° C | 27% | 1016.8 hPa | 0 mm | - | 627 W/m² | - |
| 1777309397 | 22.22° C | 26% | 1016.8 hPa | 0 mm | - | 614 W/m² | - |
| 1777309095 | 22.78° C | 28% | 1016.8 hPa | 0 mm | - | 602 W/m² | - |
| 1777308793 | 22.22° C | 29% | 1016.8 hPa | 0 mm | - | 589 W/m² | - |
* Rain latest hour (hover to see other rain measurements)
** Current wind speed in m/s (hover to see current wind gust speed)